Regional Weather Roundup
Issued by NWS

Home | Current Version | Previous Version | Text Only | Print | Product List | Glossary Off
Versions: 1 2 3 4 5 6 7 8 9 10 11 12 13 14 15 16 17 18 19 20 21 22 23 24 25 26 27 28 29 30 31 32 33 34 35 36 37 38 39 40 41 42 43 44 45 46 47 48 49 50

000
ASUS43 KIND 020659
RWRIN

WEATHER ROUNDUP FOR INDIANA
NATIONAL WEATHER SERVICE INDIANAPOLIS IN
300 AM EDT SUN AUG 02 2015

NOTE: "FAIR" INDICATES FEW OR NO CLOUDS BELOW 12,000 FEET WITH NO
SIGNIFICANT WEATHER AND/OR OBSTRUCTIONS TO VISIBILITY.

* - STATION DOES NOT REPORT WEATHER SUCH AS PRECIPITATION OR FOG.

+ - STATION NOT QUALITY CONTROLLED BY THE NATIONAL WEATHER SERVICE.
    USE DATA WITH CAUTION...ESPECIALLY DEWPOINT AND RELATIVE
    HUMIDITY OBSERVATIONS.

INZ001>003-010>013-019-020-020800-
NORTHWEST INDIANA

CITY           SKY/WX    TMP DP  RH WIND       PRES   REMARKS
KNOX *+        CLEAR     64  63  94 SW6       29.91F
MONTICELLO +   CLEAR     67  64  92 SW6       29.94S
RENSSELAER +   CLEAR     66  64  94 SW3       29.94S

$$

LMZ046-743>745-020800-
SOUTHERN LAKE MICHIGAN

STATION/POSITION TIME  TEMP    WIND        PRES    WAVE
                       AIR SEA DIR/SP/G            HT
                 (UTC) (F)     (DEG/KT/KT) (MB)    (FT)
BURNS HARBOR     0600   75     220/ 10/ 13 1012.9
MICHIGAN CITY    0600   74     190/ 12/ 13   N/A
5NW MICH CITY    0600   75 74  240/ 12/ 14   N/A     2

$$

INZ004-005-014>016-021>024-020800-
NORTH CENTRAL INDIANA

CITY           SKY/WX    TMP DP  RH WIND       PRES   REMARKS
GOSHEN         CLEAR     68  62  81 SW9       29.91S
SOUTH BEND     CLEAR     70  63  78 SW9       29.91S
WARSAW +       CLEAR     68  61  77 SW7       29.93S

$$

INZ006>009-017-018-025>027-020800-
NORTHEAST INDIANA

CITY           SKY/WX    TMP DP  RH WIND       PRES   REMARKS
ANGOLA *+      CLEAR     68  63  83 CALM      29.92S
FORT WAYNE     PTCLDY    65  61  87 SW7       29.94S

$$

INZ028-029-035-036-043>045-051>053-020800-
WEST CENTRAL INDIANA

CITY           SKY/WX    TMP DP  RH WIND       PRES   REMARKS
CRAWFORDSVL +  MOCLDY    63  60  92 SW6         N/A
GREENCASTLE +  MOCLDY    63  59  88 CALM      30.00S
LAFAYETTE      PTCLDY    65  63  93 W3        29.95S
TERRE HAUTE    MOCLDY    63  60  90 CALM      29.98S

$$

INZ030>032-037>040-046>048-054>057-064-065-020800-
CENTRAL INDIANA

CITY           SKY/WX    TMP DP  RH WIND       PRES   REMARKS
FRANKFORT +    MOCLDY   N/A N/A N/A S5        29.99R
GREENWOOD *+   MOCLDY    66  57  72 CALM      30.00S
INDIANAPOLIS   MOCLDY    66  59  78 SW8       29.97S
-EAGLE CREEK   MOCLDY    69  60  73 SW3       29.98S
KOKOMO *+      PTCLDY    68  57  68 SW8       29.96S
MT COMFORT *+  MOCLDY    64 N/A N/A SW3       29.99S
SHELBYVILLE    MOCLDY    64  61  90 S5        29.99R

$$

INZ033-034-041-042-049-050-058-059-020800-
EAST CENTRAL INDIANA

CITY           SKY/WX    TMP DP  RH WIND       PRES   REMARKS
MUNCIE         MOCLDY    67  58  72 SW7       29.97S

$$

INZ060-061-067>069-081>083-085>088-020800-
SOUTHWEST INDIANA

CITY           SKY/WX    TMP DP  RH WIND       PRES   REMARKS
EVANSVILLE     CLEAR     67  63  87 CALM      30.00F
HUNTINGBURG *+ CLEAR     63  59  88 SE3       30.00F

$$

INZ062-063-066-070>080-084-089>092-020800-
SOUTH CENTRAL AND SOUTHEAST INDIANA

CITY           SKY/WX    TMP DP  RH WIND       PRES   REMARKS
BLOOMINGTON    PTCLDY    63  60  90 CALM      30.00S
MADISON *+     CLEAR     61  59  94 CALM      30.03S
SEYMOUR +      PTCLDY    61  61 100 CALM      30.00S

$$



USA.gov is the U.S. government's official web portal to all federal, state and local government web resources and services.